Year,Month,Day,Hour,Minute,Value (Times are PST for temperature in C)
2014,04,30,00,00,9.90
2014,04,30,00,01,9.90
2014,04,30,00,02,9.90
2014,04,30,00,03,9.90
2014,04,30,00,04,9.90
2014,04,30,00,05,9.90
2014,04,30,00,06,9.90
2014,04,30,00,07,9.90
2014,04,30,00,08,9.90
2014,04,30,00,09,9.90
2014,04,30,00,10,9.90
2014,04,30,00,11,9.90
2014,04,30,00,12,9.90
2014,04,30,00,13,9.90
2014,04,30,00,14,9.90
2014,04,30,00,15,9.90
2014,04,30,00,16,9.90
2014,04,30,00,17,9.90
2014,04,30,00,18,9.80
2014,04,30,00,19,9.80
2014,04,30,00,20,9.80
2014,04,30,00,21,9.80
2014,04,30,00,22,9.80
2014,04,30,00,23,9.80
2014,04,30,00,24,9.80
2014,04,30,00,25,9.80
2014,04,30,00,26,9.90
2014,04,30,00,27,9.90
2014,04,30,00,28,9.90
2014,04,30,00,29,9.90
2014,04,30,00,30,9.90
2014,04,30,00,31,9.90
2014,04,30,00,32,9.90
2014,04,30,00,33,9.90
2014,04,30,00,34,9.90
2014,04,30,00,35,9.90
2014,04,30,00,36,9.90
2014,04,30,00,37,9.90
2014,04,30,00,38,9.90
2014,04,30,00,39,9.90
2014,04,30,00,40,9.90
2014,04,30,00,41,9.90
2014,04,30,00,42,9.90
2014,04,30,00,43,9.90
2014,04,30,00,44,9.90
2014,04,30,00,45,9.90
2014,04,30,00,46,9.90
2014,04,30,00,47,9.90
2014,04,30,00,48,10.00
2014,04,30,00,49,10.10
2014,04,30,00,50,10.10
2014,04,30,00,51,10.10
2014,04,30,00,52,10.10
2014,04,30,00,53,10.10
2014,04,30,00,54,10.10
2014,04,30,00,55,10.10
2014,04,30,00,56,10.10
2014,04,30,00,57,10.10
2014,04,30,00,58,10.10
2014,04,30,00,59,10.10
2014,04,30,01,00,10.10
2014,04,30,01,01,10.10
2014,04,30,01,02,10.10
2014,04,30,01,03,10.20
2014,04,30,01,04,10.20
2014,04,30,01,05,10.20
2014,04,30,01,06,10.20
2014,04,30,01,07,10.20
2014,04,30,01,08,10.20
2014,04,30,01,09,10.20
2014,04,30,01,10,10.20
2014,04,30,01,11,10.20
2014,04,30,01,12,10.20
2014,04,30,01,13,10.10
2014,04,30,01,14,10.10
2014,04,30,01,15,10.10
2014,04,30,01,16,10.10
2014,04,30,01,17,10.10
2014,04,30,01,18,10.10
2014,04,30,01,19,10.10
2014,04,30,01,20,10.10
2014,04,30,01,21,10.10
2014,04,30,01,22,10.10
2014,04,30,01,23,10.10
2014,04,30,01,24,10.10
2014,04,30,01,25,10.10
2014,04,30,01,26,10.10
2014,04,30,01,27,10.10
2014,04,30,01,28,10.10
2014,04,30,01,29,10.10
2014,04,30,01,30,10.10
2014,04,30,01,31,10.10
2014,04,30,01,32,10.10
2014,04,30,01,33,10.10
2014,04,30,01,34,10.10
2014,04,30,01,35,10.10
2014,04,30,01,36,10.10
2014,04,30,01,37,10.10
2014,04,30,01,38,10.10
2014,04,30,01,39,10.10
2014,04,30,01,40,10.10
2014,04,30,01,41,10.10
2014,04,30,01,42,10.10
2014,04,30,01,43,10.10
2014,04,30,01,44,10.10
2014,04,30,01,45,10.10
2014,04,30,01,46,10.10
2014,04,30,01,47,10.10
2014,04,30,01,48,10.10
2014,04,30,01,49,10.10
2014,04,30,01,50,10.10
2014,04,30,01,51,10.10
2014,04,30,01,52,10.10
2014,04,30,01,53,10.10
2014,04,30,01,54,10.10
2014,04,30,01,55,10.10
2014,04,30,01,56,10.00
2014,04,30,01,57,9.90
2014,04,30,01,58,9.90
2014,04,30,01,59,9.90
2014,04,30,02,00,9.90
2014,04,30,02,01,9.90
2014,04,30,02,02,9.90
2014,04,30,02,03,9.90
2014,04,30,02,04,9.90
2014,04,30,02,05,9.90
2014,04,30,02,06,9.80
2014,04,30,02,07,9.80
2014,04,30,02,08,9.80
2014,04,30,02,09,9.80
2014,04,30,02,10,9.80
2014,04,30,02,11,9.80
2014,04,30,02,12,9.80
2014,04,30,02,13,9.80
2014,04,30,02,14,9.70
2014,04,30,02,15,9.70
2014,04,30,02,16,9.70
2014,04,30,02,17,9.80
2014,04,30,02,18,9.80
2014,04,30,02,19,9.80
2014,04,30,02,20,9.80
2014,04,30,02,21,9.90
2014,04,30,02,22,9.90
2014,04,30,02,23,9.90
2014,04,30,02,24,9.90
2014,04,30,02,25,9.90
2014,04,30,02,26,9.90
2014,04,30,02,27,9.90
2014,04,30,02,28,9.90
2014,04,30,02,29,9.90
2014,04,30,02,30,9.90
2014,04,30,02,31,9.90
2014,04,30,02,32,9.90
2014,04,30,02,33,9.90
2014,04,30,02,34,9.90
2014,04,30,02,35,10.00
2014,04,30,02,36,10.10
2014,04,30,02,37,10.00
2014,04,30,02,38,9.90
2014,04,30,02,39,9.90
2014,04,30,02,40,9.90
2014,04,30,02,41,9.90
2014,04,30,02,42,9.90
2014,04,30,02,43,9.90
2014,04,30,02,44,9.90
2014,04,30,02,45,9.90
2014,04,30,02,46,9.90
2014,04,30,02,47,9.90
2014,04,30,02,48,9.90
2014,04,30,02,49,9.90
2014,04,30,02,50,9.90
2014,04,30,02,51,9.90
2014,04,30,02,52,9.90
2014,04,30,02,53,9.90
2014,04,30,02,54,9.90
2014,04,30,02,55,9.90
2014,04,30,02,56,9.90
2014,04,30,02,57,9.90
2014,04,30,02,58,9.90
2014,04,30,02,59,9.90
2014,04,30,03,00,9.90
2014,04,30,03,01,9.90
2014,04,30,03,02,9.90
2014,04,30,03,03,9.90
2014,04,30,03,04,9.90
2014,04,30,03,05,9.90
2014,04,30,03,06,9.90
2014,04,30,03,07,9.90
2014,04,30,03,08,9.90
2014,04,30,03,09,9.80
2014,04,30,03,10,9.80
2014,04,30,03,11,9.80
2014,04,30,03,12,9.70
2014,04,30,03,13,9.70
2014,04,30,03,14,9.70
2014,04,30,03,15,9.70
2014,04,30,03,16,9.60
2014,04,30,03,17,9.60
2014,04,30,03,18,9.60
2014,04,30,03,19,9.60
2014,04,30,03,20,9.60
2014,04,30,03,21,9.60
2014,04,30,03,22,9.60
2014,04,30,03,23,9.60
2014,04,30,03,24,9.50
2014,04,30,03,25,9.50
2014,04,30,03,26,9.50
2014,04,30,03,27,9.40
2014,04,30,03,28,9.40
2014,04,30,03,29,9.40
2014,04,30,03,30,9.40
2014,04,30,03,31,9.40
2014,04,30,03,32,9.40
2014,04,30,03,33,9.40
2014,04,30,03,34,9.30
2014,04,30,03,35,9.30
2014,04,30,03,36,9.30
2014,04,30,03,37,9.30
2014,04,30,03,38,9.20
2014,04,30,03,39,9.20
2014,04,30,03,40,9.20
2014,04,30,03,41,9.20
2014,04,30,03,42,9.20
2014,04,30,03,43,9.20
2014,04,30,03,44,9.20
2014,04,30,03,45,9.20
2014,04,30,03,46,9.20
2014,04,30,03,47,9.20
2014,04,30,03,48,9.20
2014,04,30,03,49,9.10
2014,04,30,03,50,9.10
2014,04,30,03,51,9.00
2014,04,30,03,52,9.00
2014,04,30,03,53,9.00
2014,04,30,03,54,8.90
2014,04,30,03,55,8.90
2014,04,30,03,56,8.90
2014,04,30,03,57,8.90
2014,04,30,03,58,8.80
2014,04,30,03,59,8.80
2014,04,30,04,00,8.80
2014,04,30,04,01,8.70
2014,04,30,04,02,8.70
2014,04,30,04,03,8.70
2014,04,30,04,04,8.70
2014,04,30,04,05,8.70
2014,04,30,04,06,8.70
2014,04,30,04,07,8.70
2014,04,30,04,08,8.60
2014,04,30,04,09,8.60
2014,04,30,04,10,8.60
2014,04,30,04,11,8.60
2014,04,30,04,12,8.60
2014,04,30,04,13,8.60
2014,04,30,04,14,8.60
2014,04,30,04,15,8.60
2014,04,30,04,16,8.60
2014,04,30,04,17,8.50
2014,04,30,04,18,8.50
2014,04,30,04,19,8.50
2014,04,30,04,20,8.50
2014,04,30,04,21,8.50
2014,04,30,04,22,8.50
2014,04,30,04,23,8.50
2014,04,30,04,24,8.50
2014,04,30,04,25,8.50
2014,04,30,04,26,8.50
2014,04,30,04,27,8.50
2014,04,30,04,28,8.50
2014,04,30,04,29,8.50
2014,04,30,04,30,8.50
2014,04,30,04,31,8.40
2014,04,30,04,32,8.40
2014,04,30,04,33,8.50
2014,04,30,04,34,8.40
2014,04,30,04,35,8.40
2014,04,30,04,36,8.40
2014,04,30,04,37,8.40
2014,04,30,04,38,8.40
2014,04,30,04,39,8.40
2014,04,30,04,40,8.40
2014,04,30,04,41,8.40
2014,04,30,04,42,8.40
2014,04,30,04,43,8.40
2014,04,30,04,44,8.50
2014,04,30,04,45,8.50
2014,04,30,04,46,8.50
2014,04,30,04,47,8.50
2014,04,30,04,48,8.50
2014,04,30,04,49,8.50
2014,04,30,04,50,8.50
2014,04,30,04,51,8.50
2014,04,30,04,52,8.50
2014,04,30,04,53,8.50
2014,04,30,04,54,8.50
2014,04,30,04,55,8.50
2014,04,30,04,56,8.50
2014,04,30,04,57,8.50
2014,04,30,04,58,8.50
2014,04,30,04,59,8.50
2014,04,30,05,00,8.50
2014,04,30,05,01,8.50
2014,04,30,05,02,8.50
2014,04,30,05,03,8.50
2014,04,30,05,04,8.50
2014,04,30,05,05,8.50
2014,04,30,05,06,8.50
2014,04,30,05,07,8.50
2014,04,30,05,08,8.50
2014,04,30,05,09,8.40
2014,04,30,05,10,8.40
2014,04,30,05,11,8.40
2014,04,30,05,12,8.40
2014,04,30,05,13,8.40
2014,04,30,05,14,8.40
2014,04,30,05,15,8.40
2014,04,30,05,16,8.40
2014,04,30,05,17,8.40
2014,04,30,05,18,8.40
2014,04,30,05,19,8.40
2014,04,30,05,20,8.40
2014,04,30,05,21,8.40
2014,04,30,05,22,8.40
2014,04,30,05,23,8.40
2014,04,30,05,24,8.40
2014,04,30,05,25,8.40
2014,04,30,05,26,8.40
2014,04,30,05,27,8.40
2014,04,30,05,28,8.40
2014,04,30,05,29,8.40
2014,04,30,05,30,8.40
2014,04,30,05,31,8.40
2014,04,30,05,32,8.40
2014,04,30,05,33,8.40
2014,04,30,05,34,8.40
2014,04,30,05,35,8.40
2014,04,30,05,36,8.30
2014,04,30,05,37,8.30
2014,04,30,05,38,8.30
2014,04,30,05,39,8.30
2014,04,30,05,40,8.30
2014,04,30,05,41,8.30
2014,04,30,05,42,8.30
2014,04,30,05,43,8.30
2014,04,30,05,44,8.30
2014,04,30,05,45,8.30
2014,04,30,05,46,8.30
2014,04,30,05,47,8.30
2014,04,30,05,48,8.30
2014,04,30,05,49,8.20
2014,04,30,05,50,8.20
2014,04,30,05,51,8.20
2014,04,30,05,52,8.20
2014,04,30,05,53,8.20
2014,04,30,05,54,8.20
2014,04,30,05,55,8.20
2014,04,30,05,56,8.20
2014,04,30,05,57,8.20
2014,04,30,05,58,8.20
2014,04,30,05,59,8.20
2014,04,30,06,00,8.20
2014,04,30,06,01,8.20
2014,04,30,06,02,8.20
2014,04,30,06,03,8.20
2014,04,30,06,04,8.20
2014,04,30,06,05,8.20
2014,04,30,06,06,8.20
2014,04,30,06,07,8.20
2014,04,30,06,08,8.20
2014,04,30,06,09,8.20
2014,04,30,06,10,8.20
2014,04,30,06,11,8.20
2014,04,30,06,12,8.20
2014,04,30,06,13,8.20
2014,04,30,06,14,8.20
2014,04,30,06,15,8.20
2014,04,30,06,16,8.20
2014,04,30,06,17,8.10
2014,04,30,06,18,8.10
2014,04,30,06,19,8.10
2014,04,30,06,20,8.10
2014,04,30,06,21,8.10
2014,04,30,06,22,8.10
2014,04,30,06,23,8.10
2014,04,30,06,24,8.10
2014,04,30,06,25,8.10
2014,04,30,06,26,8.10
2014,04,30,06,27,8.10
2014,04,30,06,28,8.10
2014,04,30,06,29,8.10
2014,04,30,06,30,8.10
2014,04,30,06,31,8.10
2014,04,30,06,32,8.10
2014,04,30,06,33,8.10
2014,04,30,06,34,8.10
2014,04,30,06,35,8.10
2014,04,30,06,36,8.10
2014,04,30,06,37,8.10
2014,04,30,06,38,8.10
2014,04,30,06,39,8.10
2014,04,30,06,40,8.10
2014,04,30,06,41,8.10
2014,04,30,06,42,8.10
2014,04,30,06,43,8.10
2014,04,30,06,44,8.10
2014,04,30,06,45,8.10
2014,04,30,06,46,8.10
2014,04,30,06,47,8.20
2014,04,30,06,48,8.20
2014,04,30,06,49,8.20
2014,04,30,06,50,8.20
2014,04,30,06,51,8.20
2014,04,30,06,52,8.20
2014,04,30,06,53,8.30
2014,04,30,06,54,8.30
2014,04,30,06,55,8.30
2014,04,30,06,56,8.30
2014,04,30,06,57,8.40
2014,04,30,06,58,8.40
2014,04,30,06,59,8.40
2014,04,30,07,00,8.40
2014,04,30,07,01,8.50
2014,04,30,07,02,8.50
2014,04,30,07,03,8.50
2014,04,30,07,04,8.50
2014,04,30,07,05,8.60
2014,04,30,07,06,8.60
2014,04,30,07,07,8.60
2014,04,30,07,08,8.60
2014,04,30,07,09,8.70
2014,04,30,07,10,8.70
2014,04,30,07,11,8.70
2014,04,30,07,12,8.70
2014,04,30,07,13,8.80
2014,04,30,07,14,8.80
2014,04,30,07,15,8.80
2014,04,30,07,16,8.90
2014,04,30,07,17,8.90
2014,04,30,07,18,9.00
2014,04,30,07,19,9.00
2014,04,30,07,20,9.00
2014,04,30,07,21,9.10
2014,04,30,07,22,9.10
2014,04,30,07,23,9.20
2014,04,30,07,24,9.20
2014,04,30,07,25,9.20
2014,04,30,07,26,9.20
2014,04,30,07,27,9.30
2014,04,30,07,28,9.40
2014,04,30,07,29,9.40
2014,04,30,07,30,9.50
2014,04,30,07,31,9.50
2014,04,30,07,32,9.60
2014,04,30,07,33,9.60
2014,04,30,07,34,9.70
2014,04,30,07,35,9.70
2014,04,30,07,36,9.70
2014,04,30,07,37,9.70
2014,04,30,07,38,9.70
2014,04,30,07,39,9.70
2014,04,30,07,40,9.80
2014,04,30,07,41,9.80
2014,04,30,07,42,9.80
2014,04,30,07,43,9.90
2014,04,30,07,44,9.90
2014,04,30,07,45,9.90
2014,04,30,07,46,10.00
2014,04,30,07,47,10.10
2014,04,30,07,48,10.10
2014,04,30,07,49,10.10
2014,04,30,07,50,10.20
2014,04,30,07,51,10.20
2014,04,30,07,52,10.30
2014,04,30,07,53,10.30
2014,04,30,07,54,10.40
2014,04,30,07,55,10.50
2014,04,30,07,56,10.60
2014,04,30,07,57,10.60
2014,04,30,07,58,10.70
2014,04,30,07,59,10.70
2014,04,30,08,00,10.80
2014,04,30,08,01,10.90
2014,04,30,08,02,10.90
2014,04,30,08,03,10.90
2014,04,30,08,04,11.10
2014,04,30,08,05,11.10
2014,04,30,08,06,11.20
2014,04,30,08,07,11.40
2014,04,30,08,08,11.40
2014,04,30,08,09,11.60
2014,04,30,08,10,11.70
2014,04,30,08,11,11.80
2014,04,30,08,12,11.90
2014,04,30,08,13,12.00
2014,04,30,08,14,12.10
2014,04,30,08,15,12.20
2014,04,30,08,16,12.40
2014,04,30,08,17,12.50
2014,04,30,08,18,12.60
2014,04,30,08,19,12.70
2014,04,30,08,20,12.80
2014,04,30,08,21,13.00
2014,04,30,08,22,13.10
2014,04,30,08,23,13.20
2014,04,30,08,24,13.30
2014,04,30,08,25,13.30
2014,04,30,08,26,13.50
2014,04,30,08,27,13.50
2014,04,30,08,28,13.60
2014,04,30,08,29,13.70
2014,04,30,08,30,13.70
2014,04,30,08,31,13.70
2014,04,30,08,32,13.70
2014,04,30,08,33,13.80
2014,04,30,08,34,13.80
2014,04,30,08,35,13.90
2014,04,30,08,36,13.90
2014,04,30,08,37,14.00
2014,04,30,08,38,14.00
2014,04,30,08,39,14.10
2014,04,30,08,40,14.10
2014,04,30,08,41,14.20
2014,04,30,08,42,14.20
2014,04,30,08,43,14.20
2014,04,30,08,44,14.30
2014,04,30,08,45,14.30
2014,04,30,08,46,14.40
2014,04,30,08,47,14.40
2014,04,30,08,48,14.50
2014,04,30,08,49,14.50
2014,04,30,08,50,14.50
2014,04,30,08,51,14.60
2014,04,30,08,52,14.60
2014,04,30,08,53,14.60
2014,04,30,08,54,14.60
2014,04,30,08,55,14.70
2014,04,30,08,56,14.70
2014,04,30,08,57,14.80
2014,04,30,08,58,14.80
2014,04,30,08,59,14.80
2014,04,30,09,00,14.80
2014,04,30,09,01,14.90
2014,04,30,09,02,14.90
2014,04,30,09,03,14.90
2014,04,30,09,04,15.00
2014,04,30,09,05,15.00
2014,04,30,09,06,15.10
2014,04,30,09,07,15.10
2014,04,30,09,08,15.10
2014,04,30,09,09,15.20
2014,04,30,09,10,15.20
2014,04,30,09,11,15.20
2014,04,30,09,12,15.20
2014,04,30,09,13,15.30
2014,04,30,09,14,15.30
2014,04,30,09,15,15.30
2014,04,30,09,16,15.30
2014,04,30,09,17,15.30
2014,04,30,09,18,15.30
2014,04,30,09,19,15.40
2014,04,30,09,20,15.40
2014,04,30,09,21,15.40
2014,04,30,09,22,15.50
2014,04,30,09,23,15.50
2014,04,30,09,24,15.50
2014,04,30,09,25,15.50
2014,04,30,09,26,15.50
2014,04,30,09,27,15.50
2014,04,30,09,28,15.50
2014,04,30,09,29,15.60
2014,04,30,09,30,15.60
2014,04,30,09,31,15.60
2014,04,30,09,32,15.60
2014,04,30,09,33,15.60
2014,04,30,09,34,15.70
2014,04,30,09,35,15.70
2014,04,30,09,36,15.70
2014,04,30,09,37,15.70
2014,04,30,09,38,15.70
2014,04,30,09,39,15.70
2014,04,30,09,40,15.80
2014,04,30,09,41,15.80
2014,04,30,09,42,15.80
2014,04,30,09,43,15.80
2014,04,30,09,44,15.80
2014,04,30,09,45,15.80
2014,04,30,09,46,15.80
2014,04,30,09,47,15.80
2014,04,30,09,48,15.80
2014,04,30,09,49,15.90
2014,04,30,09,50,15.90
2014,04,30,09,51,15.90
2014,04,30,09,52,15.90
2014,04,30,09,53,15.90
2014,04,30,09,54,15.90
2014,04,30,09,55,15.90
2014,04,30,09,56,15.90
2014,04,30,09,57,15.90
2014,04,30,09,58,15.90
2014,04,30,09,59,15.90
2014,04,30,10,00,15.90
2014,04,30,10,01,15.90
2014,04,30,10,02,15.90
2014,04,30,10,03,16.00
2014,04,30,10,04,16.10
2014,04,30,10,05,16.10
2014,04,30,10,06,16.10
2014,04,30,10,07,16.10
2014,04,30,10,08,16.10
2014,04,30,10,09,16.10
2014,04,30,10,10,16.10
2014,04,30,10,11,16.10
2014,04,30,10,12,16.10
2014,04,30,10,13,16.10
2014,04,30,10,14,16.10
2014,04,30,10,15,16.10
2014,04,30,10,16,16.20
2014,04,30,10,17,16.20
2014,04,30,10,18,16.20
2014,04,30,10,19,16.20
2014,04,30,10,20,16.30
2014,04,30,10,21,16.30
2014,04,30,10,22,16.30
2014,04,30,10,23,16.40
2014,04,30,10,24,16.40
2014,04,30,10,25,16.40
2014,04,30,10,26,16.40
2014,04,30,10,27,16.40
2014,04,30,10,28,16.40
2014,04,30,10,29,16.60
2014,04,30,10,30,16.60
2014,04,30,10,31,16.60
2014,04,30,10,32,16.60
2014,04,30,10,33,16.60
2014,04,30,10,34,16.70
2014,04,30,10,35,16.70
2014,04,30,10,36,16.70
2014,04,30,10,37,16.70
2014,04,30,10,38,16.70
2014,04,30,10,39,16.70
2014,04,30,10,40,16.70
2014,04,30,10,41,16.70
2014,04,30,10,42,16.80
2014,04,30,10,43,16.80
2014,04,30,10,44,16.90
2014,04,30,10,45,16.90
2014,04,30,10,46,17.00
2014,04,30,10,47,17.00
2014,04,30,10,48,17.00
2014,04,30,10,49,17.00
2014,04,30,10,50,17.10
2014,04,30,10,51,17.10
2014,04,30,10,52,17.10
2014,04,30,10,53,17.20
2014,04,30,10,54,17.20
2014,04,30,10,55,17.20
2014,04,30,10,56,17.30
2014,04,30,10,57,17.30
2014,04,30,10,58,17.30
2014,04,30,10,59,17.30
2014,04,30,11,00,17.30
2014,04,30,11,01,17.40
2014,04,30,11,02,17.40
2014,04,30,11,03,17.50
2014,04,30,11,04,17.50
2014,04,30,11,05,17.60
2014,04,30,11,06,17.60
2014,04,30,11,07,17.70
2014,04,30,11,08,17.70
2014,04,30,11,09,17.80
2014,04,30,11,10,17.80
2014,04,30,11,11,17.80
2014,04,30,11,12,17.90
2014,04,30,11,13,17.90
2014,04,30,11,14,17.90
2014,04,30,11,15,17.90
2014,04,30,11,16,17.90
2014,04,30,11,17,17.90
2014,04,30,11,18,17.90
2014,04,30,11,19,17.90
2014,04,30,11,20,17.90
2014,04,30,11,21,17.90
2014,04,30,11,22,17.90
2014,04,30,11,23,17.90
2014,04,30,11,24,17.90
2014,04,30,11,25,17.90
2014,04,30,11,26,18.10
2014,04,30,11,27,18.10
2014,04,30,11,28,18.10
2014,04,30,11,29,18.20
2014,04,30,11,30,18.20
2014,04,30,11,31,18.20
2014,04,30,11,32,18.20
2014,04,30,11,33,18.20
2014,04,30,11,34,18.20
2014,04,30,11,35,18.20
2014,04,30,11,36,18.20
2014,04,30,11,37,18.20
2014,04,30,11,38,18.20
2014,04,30,11,39,18.20
2014,04,30,11,40,18.30
2014,04,30,11,41,18.30
2014,04,30,11,42,18.30
2014,04,30,11,43,18.30
2014,04,30,11,44,18.30
2014,04,30,11,45,18.30
2014,04,30,11,46,18.40
2014,04,30,11,47,18.40
2014,04,30,11,48,18.40
2014,04,30,11,49,18.40
2014,04,30,11,50,18.40
2014,04,30,11,51,18.40
2014,04,30,11,52,18.40
2014,04,30,11,53,18.50
2014,04,30,11,54,18.50
2014,04,30,11,55,18.50
2014,04,30,11,56,18.60
2014,04,30,11,57,18.60
2014,04,30,11,58,18.70
2014,04,30,11,59,18.70
2014,04,30,12,00,18.70
2014,04,30,12,01,18.70
2014,04,30,12,02,18.80
2014,04,30,12,03,18.80
2014,04,30,12,04,18.90
2014,04,30,12,05,18.90
2014,04,30,12,06,18.90
2014,04,30,12,07,18.90
2014,04,30,12,08,18.90
2014,04,30,12,09,18.90
2014,04,30,12,10,18.90
2014,04,30,12,11,18.90
2014,04,30,12,12,19.10
2014,04,30,12,13,19.10
2014,04,30,12,14,19.10
2014,04,30,12,15,19.10
2014,04,30,12,16,19.10
2014,04,30,12,17,19.10
2014,04,30,12,18,19.20
2014,04,30,12,19,19.20
2014,04,30,12,20,19.20
2014,04,30,12,21,19.30
2014,04,30,12,22,19.30
2014,04,30,12,23,19.40
2014,04,30,12,24,19.40
2014,04,30,12,25,19.40
2014,04,30,12,26,19.40
2014,04,30,12,27,19.50
2014,04,30,12,28,19.50
2014,04,30,12,29,19.50
2014,04,30,12,30,19.50
2014,04,30,12,31,19.50
2014,04,30,12,32,19.50
2014,04,30,12,33,19.60
2014,04,30,12,34,19.60
2014,04,30,12,35,19.60
2014,04,30,12,36,19.60
2014,04,30,12,37,19.60
2014,04,30,12,38,19.60
2014,04,30,12,39,19.60
2014,04,30,12,40,19.60
2014,04,30,12,41,19.60
2014,04,30,12,42,19.60
2014,04,30,12,43,19.70
2014,04,30,12,44,19.70
2014,04,30,12,45,19.70
2014,04,30,12,46,19.70
2014,04,30,12,47,19.70
2014,04,30,12,48,19.70
2014,04,30,12,49,19.80
2014,04,30,12,50,19.80
2014,04,30,12,51,19.80
2014,04,30,12,52,19.80
2014,04,30,12,53,19.80
2014,04,30,12,54,19.80
2014,04,30,12,55,19.90
2014,04,30,12,56,19.90
2014,04,30,12,57,19.90
2014,04,30,12,58,19.90
2014,04,30,12,59,19.90
2014,04,30,13,00,19.90
2014,04,30,13,01,19.90
2014,04,30,13,02,19.90
2014,04,30,13,03,19.90
2014,04,30,13,04,19.90
2014,04,30,13,05,20.00
2014,04,30,13,06,20.10
2014,04,30,13,07,20.10
2014,04,30,13,08,20.20
2014,04,30,13,09,20.20
2014,04,30,13,10,20.20
2014,04,30,13,11,20.20
2014,04,30,13,12,20.20
2014,04,30,13,13,20.30
2014,04,30,13,14,20.30
2014,04,30,13,15,20.30
2014,04,30,13,16,20.30
2014,04,30,13,17,20.30
2014,04,30,13,18,20.40
2014,04,30,13,19,20.40
2014,04,30,13,20,20.40
2014,04,30,13,21,20.40
2014,04,30,13,22,20.50
2014,04,30,13,23,20.50
2014,04,30,13,24,20.60
2014,04,30,13,25,20.60
2014,04,30,13,26,20.60
2014,04,30,13,27,20.70
2014,04,30,13,28,20.80
2014,04,30,13,29,20.80
2014,04,30,13,30,20.90
2014,04,30,13,31,21.00
2014,04,30,13,32,21.00
2014,04,30,13,33,21.10
2014,04,30,13,34,21.10
2014,04,30,13,35,21.10
2014,04,30,13,36,21.20
2014,04,30,13,37,21.20
2014,04,30,13,38,21.20
2014,04,30,13,39,21.30
2014,04,30,13,40,21.30
2014,04,30,13,41,21.40
2014,04,30,13,42,21.50
2014,04,30,13,43,21.60
2014,04,30,13,44,21.70
2014,04,30,13,45,21.80
2014,04,30,13,46,21.80
2014,04,30,13,47,21.90
2014,04,30,13,48,22.00
2014,04,30,13,49,22.00
2014,04,30,13,50,22.00
2014,04,30,13,51,22.00
2014,04,30,13,52,21.90
2014,04,30,13,53,22.00
2014,04,30,13,54,22.00
2014,04,30,13,55,22.00
2014,04,30,13,56,22.00
2014,04,30,13,57,21.90
2014,04,30,13,58,21.90
2014,04,30,13,59,21.90
2014,04,30,14,00,22.00
2014,04,30,14,01,22.10
2014,04,30,14,02,22.10
2014,04,30,14,03,22.20
2014,04,30,14,04,22.20
2014,04,30,14,05,22.20
2014,04,30,14,06,22.20
2014,04,30,14,07,22.20
2014,04,30,14,08,22.20
2014,04,30,14,09,22.30
2014,04,30,14,10,22.30
2014,04,30,14,11,22.40
2014,04,30,14,12,22.50
2014,04,30,14,13,22.50
2014,04,30,14,14,22.60
2014,04,30,14,15,22.60
2014,04,30,14,16,22.60
2014,04,30,14,17,22.60
2014,04,30,14,18,22.60
2014,04,30,14,19,22.70
2014,04,30,14,20,22.70
2014,04,30,14,21,22.70
2014,04,30,14,22,22.70
2014,04,30,14,23,22.80
2014,04,30,14,24,22.80
2014,04,30,14,25,22.90
2014,04,30,14,26,22.90
2014,04,30,14,27,22.90
2014,04,30,14,28,22.90
2014,04,30,14,29,22.90
2014,04,30,14,30,22.90
2014,04,30,14,31,22.90
2014,04,30,14,32,22.90
2014,04,30,14,33,22.90
2014,04,30,14,34,23.10
2014,04,30,14,35,23.10
2014,04,30,14,36,23.10
2014,04,30,14,37,23.20
2014,04,30,14,38,23.30
2014,04,30,14,39,23.30
2014,04,30,14,40,23.30
2014,04,30,14,41,23.40
2014,04,30,14,42,23.40
2014,04,30,14,43,23.40
2014,04,30,14,44,23.40
2014,04,30,14,45,23.50
2014,04,30,14,46,23.60
2014,04,30,14,47,23.60
2014,04,30,14,48,23.70
2014,04,30,14,49,23.80
2014,04,30,14,50,23.90
2014,04,30,14,51,24.00
2014,04,30,14,52,24.10
2014,04,30,14,53,24.10
2014,04,30,14,54,24.00
2014,04,30,14,55,23.90
2014,04,30,14,56,23.80
2014,04,30,14,57,23.80
2014,04,30,14,58,23.80
2014,04,30,14,59,23.80
2014,04,30,15,00,23.80
2014,04,30,15,01,23.70
2014,04,30,15,02,23.70
2014,04,30,15,03,23.70
2014,04,30,15,04,23.70
2014,04,30,15,05,23.80
2014,04,30,15,06,23.80
2014,04,30,15,07,23.80
2014,04,30,15,08,23.90
2014,04,30,15,09,23.90
2014,04,30,15,10,23.90
2014,04,30,15,11,23.90
2014,04,30,15,12,23.90
2014,04,30,15,13,23.90
2014,04,30,15,14,23.80
2014,04,30,15,15,23.80
2014,04,30,15,16,23.70
2014,04,30,15,17,23.60
2014,04,30,15,18,23.60
2014,04,30,15,19,23.50
2014,04,30,15,20,23.40
2014,04,30,15,21,23.40
2014,04,30,15,22,23.30
2014,04,30,15,23,23.30
2014,04,30,15,24,23.30
2014,04,30,15,25,23.30
2014,04,30,15,26,23.40
2014,04,30,15,27,23.40
2014,04,30,15,28,23.50
2014,04,30,15,29,23.60
2014,04,30,15,30,23.60
2014,04,30,15,31,23.60
2014,04,30,15,32,23.60
2014,04,30,15,33,23.60
2014,04,30,15,34,23.50
2014,04,30,15,35,23.40
2014,04,30,15,36,23.40
2014,04,30,15,37,23.30
2014,04,30,15,38,23.30
2014,04,30,15,39,23.30
2014,04,30,15,40,23.30
2014,04,30,15,41,23.30
2014,04,30,15,42,23.30
2014,04,30,15,43,23.30
2014,04,30,15,44,23.20
2014,04,30,15,45,23.20
2014,04,30,15,46,23.10
2014,04,30,15,47,23.10
2014,04,30,15,48,23.00
2014,04,30,15,49,22.90
2014,04,30,15,50,22.90
2014,04,30,15,51,22.80
2014,04,30,15,52,22.80
2014,04,30,15,53,22.80
2014,04,30,15,54,22.80
2014,04,30,15,55,22.80
2014,04,30,15,56,22.80
2014,04,30,15,57,22.80
2014,04,30,15,58,22.80
2014,04,30,15,59,22.80
2014,04,30,16,00,22.70
2014,04,30,16,01,22.70
2014,04,30,16,02,22.70
2014,04,30,16,03,22.70
2014,04,30,16,04,22.80
2014,04,30,16,05,22.70
2014,04,30,16,06,22.70
2014,04,30,16,07,22.70
2014,04,30,16,08,22.70
2014,04,30,16,09,22.70
2014,04,30,16,10,22.70
2014,04,30,16,11,22.70
2014,04,30,16,12,22.70
2014,04,30,16,13,22.70
2014,04,30,16,14,22.70
2014,04,30,16,15,22.70
2014,04,30,16,16,22.70
2014,04,30,16,17,22.70
2014,04,30,16,18,22.70
2014,04,30,16,19,22.70
2014,04,30,16,20,22.70
2014,04,30,16,21,22.70
2014,04,30,16,22,22.80
2014,04,30,16,23,22.80
2014,04,30,16,24,22.80
2014,04,30,16,25,22.80
2014,04,30,16,26,22.80
2014,04,30,16,27,22.80
2014,04,30,16,28,22.80
2014,04,30,16,29,22.90
2014,04,30,16,30,22.90
2014,04,30,16,31,22.90
2014,04,30,16,32,22.90
2014,04,30,16,33,22.90
2014,04,30,16,34,22.90
2014,04,30,16,35,22.90
2014,04,30,16,36,22.90
2014,04,30,16,37,22.90
2014,04,30,16,38,22.90
2014,04,30,16,39,22.90
2014,04,30,16,40,22.90
2014,04,30,16,41,22.90
2014,04,30,16,42,23.00
2014,04,30,16,43,23.10
2014,04,30,16,44,23.10
2014,04,30,16,45,23.10
2014,04,30,16,46,23.10
2014,04,30,16,47,23.20
2014,04,30,16,48,23.20
2014,04,30,16,49,23.20
2014,04,30,16,50,23.20
2014,04,30,16,51,23.20
2014,04,30,16,52,23.30
2014,04,30,16,53,23.30
2014,04,30,16,54,23.30
2014,04,30,16,55,23.30
2014,04,30,16,56,23.30
2014,04,30,16,57,23.30
2014,04,30,16,58,23.30
2014,04,30,16,59,23.20
2014,04,30,17,00,23.20
2014,04,30,17,01,23.20
2014,04,30,17,02,23.20
2014,04,30,17,03,23.20
2014,04,30,17,04,23.10
2014,04,30,17,05,23.10
2014,04,30,17,06,23.10
2014,04,30,17,07,23.10
2014,04,30,17,08,23.10
2014,04,30,17,09,23.10
2014,04,30,17,10,23.00
2014,04,30,17,11,22.90
2014,04,30,17,12,22.90
2014,04,30,17,13,22.90
2014,04,30,17,14,22.90
2014,04,30,17,15,22.90
2014,04,30,17,16,22.90
2014,04,30,17,17,22.90
2014,04,30,17,18,23.00
2014,04,30,17,19,23.10
2014,04,30,17,20,23.10
2014,04,30,17,21,23.10
2014,04,30,17,22,23.10
2014,04,30,17,23,23.10
2014,04,30,17,24,23.10
2014,04,30,17,25,23.10
2014,04,30,17,26,23.10
2014,04,30,17,27,23.10
2014,04,30,17,28,23.00
2014,04,30,17,29,22.90
2014,04,30,17,30,23.00
2014,04,30,17,31,23.10
2014,04,30,17,32,23.10
2014,04,30,17,33,23.10
2014,04,30,17,34,23.10
2014,04,30,17,35,23.10
2014,04,30,17,36,23.10